Location: Home
(42.5358°N, 72.7383°W)
Time: 10:47:53
(UTC-05:00)

S-56A Canister/Altair - Pass Details

Date: 06 December 2021
Orbit: 634 x 2499 km, 38.9° (Epoch: 22 January)

Event Time Altitude Azimuth Distance (km) Brightness Sun altitude
Rises 00:59:35 0° 260° (W) 5,053 - -64.3°
Reaches altitude 10° 01:03:26 10° 258° (WSW) 3,761 - -63.8°
Maximum altitude 01:12:26 67° 179° (S) 1,210 - -62.5°
Drops below altitude 10° 01:18:21 10° 98° (E) 2,521 - -61.7°
Sets 01:20:29 0° 95° (E) 3,304 - -61.4°
